This is the latest recevied weather packets stored in our database for station/object FREPRT-WX. If no packets are shown the sender has not sent any weather packets the latest 10 day(s).
| Time | Temp. | Humidity | Pressure | Rain* | Wind** | Luminosity | Snow |
|---|---|---|---|---|---|---|---|
| 1777664736 | 7.22° C | 60% | 987.1 hPa | 0 mm | - | - | - |
| 1777663854 | 7.22° C | 60% | 987.1 hPa | 0 mm | - | - | - |
| 1777662938 | 6.67° C | 60% | 987 hPa | 0 mm | - | - | - |
| 1777662060 | 6.67° C | 60% | 987 hPa | 0 mm | - | - | - |
| 1777661137 | 6.67° C | 62% | 986.6 hPa | 0 mm | - | - | - |
| 1777660253 | 6.67° C | 63% | 986.9 hPa | 0 mm | - | - | - |
| 1777659337 | 6.11° C | 63% | 986.9 hPa | 0 mm | - | - | - |
| 1777658467 | 6.67° C | 63% | 986.9 hPa | 0 mm | - | - | - |
| 1777657538 | 6.11° C | 61% | 987.8 hPa | 0 mm | - | - | - |
| 1777656653 | 6.11° C | 62% | 987.2 hPa | 0 mm | - | - | - |
| 1777655737 | 6.67° C | 62% | 987.3 hPa | 0 mm | - | - | - |
| 1777654864 | 6.67° C | 62% | 987.3 hPa | 0 mm | - | - | - |
| 1777653936 | 6.67° C | 57% | 986.1 hPa | 0 mm | - | - | - |
| 1777653057 | 7.22° C | 57% | 986.3 hPa | 0 mm | - | - | - |
| 1777652137 | 7.22° C | 57% | 986.2 hPa | 0 mm | - | - | - |
| 1777651272 | 6.67° C | 57% | 986.2 hPa | 0 mm | - | - | - |
| 1777650337 | 6.67° C | 60% | 986.3 hPa | 0 mm | - | - | - |
| 1777649453 | 6.67° C | 54% | 986.8 hPa | 0 mm | - | - | - |
| 1777648537 | 6.67° C | 54% | 986.8 hPa | 0 mm | - | - | - |
| 1777647667 | 6.67° C | 54% | 986.8 hPa | 0 mm | - | - | - |
| 1777646736 | 6.67° C | 63% | 986.1 hPa | 0 mm | - | - | - |
| 1777645856 | 6.11° C | 59% | 986.7 hPa | 0 mm | - | - | - |
| 1777644937 | 6.11° C | 59% | 986.7 hPa | 0 mm | - | - | - |
| 1777644074 | 5.56° C | 59% | 986.7 hPa | 0 mm | - | - | - |
| 1777643137 | 5.56° C | 63% | 986 hPa | 0 mm | - | - | - |
* Rain latest hour (hover to see other rain measurements)
** Current wind speed in m/s (hover to see current wind gust speed)